COSMOS 2251 DEB, 35961

Orbit data source: Space-Track

COSMOS 2251 DEB, 35961 is space debris in LEO originally from a launch on Wed, 16 Jun 1993 UTC launched from the Plesetsk Missile And Space Complex (PKMTR). The debris from Iridium 33, an American commercial communications satellite, has been tracked extensively since its accidental collision with the defunct Russian satellite Cosmos 2251 in 2009. This event, occurring at high speed in low Earth orbit (LEO), generated thousands of pieces of space debris, significantly increasing the risk of further collisions. The Iridium 33 debris cloud has impacted space traffic management and orbital debris mitigation strategies, making it a subject of ongoing study in space situational awareness.

Loading next visibility...
Identifier
35961, 1993-036AVB
Orbit
LEO
Country
Flag of CISCIS
Related business
Manufacturer
Unknown
Mission
Spacecraft
Bus & Motor
Unknown
Mass
Unknown
Launch date (UTC)
1993-06-16 (33 years ago)
Launch vehicle
Unknown
Launch site
Plesetsk Missile And Space Complex (PKMTR)
Object type
Payload
Rocket body
Debris
Shape & HBR
Unknown shape, 0.1 m
Radar Cross Section
Small (<0.1 m²)

Expand to show TLE details & history
Last TLE update: 1 day ago

TLE from 1 day ago
0 COSMOS 2251 DEB
1 35961U 93036AVB 26207.16660654  .00002605  00000-0  13611-2 0  9993
2 35961  73.9260 167.2932 0185345  53.9556 307.8594 14.06458205658507
Epoch: 2026-07-26T03:59Z
TLE epoch observation values (Epoch: 2026-07-26T03:59:54.805Z)
Latitude
0.00004°
Longitude
163.44643°
Altitude
793.186 km
Speed
7.499 km/s
True Right ascension
11h 09m 10s
True Declination
0° 00' 00"
Sunlit
Object was in daylight at epoch
Visualization orbit readout
Latitude
Unknown
Longitude
Unknown
Altitude
Unknown
Speed
Unknown
Apparent Right ascension
Unknown
Apparent Declination
Unknown
Sunlit
N/A
Visualization observer readout
Local Sidereal Time
21:11:00
Azimuth
Unknown
Elevation
Unknown
Doppler factor
Unknown
Orbital elements
Apogee altitude
1,003.507 km
Perigee altitude
734.857 km
Semi-major axis
7,247.319 km
Eccentricity
0.01853
Inclination
73.926°
RAAN
167.2932°
Arg. of periapsis
53.9556°
True anomaly
306.15862°
Mean anomaly
307.8594°
Eccentric anomaly
307.01142°
Mean motion
3.51785 °/min
Orbital period
102.34 mins
BSTAR
0.0013611
Loading maneuver chart data...
Computing Atmospheric mass density...

Documentation

Showing up to 5 results
|